Regional Weather Roundup
Issued by NWS

Home | Current Version | Previous Version | Graphics & Text | Print | Product List | Glossary Off
Versions: 1 2 3 4 5 6 7 8 9 10 11 12 13 14 15 16 17 18 19 20 21 22 23 24 25 26 27 28 29 30 31 32 33 34 35 36 37 38 39 40 41 42 43 44 45 46 47 48 49 50

000
ASUS43 KMKX 171400
RWRWI

WISCONSIN REGIONAL WEATHER ROUNDUP
NATIONAL WEATHER SERVICE MILWAUKEE/SULLIVAN WI
900 AM CDT THU APR 17 2014

NOTE: "FAIR" INDICATES FEW OR NO CLOUDS BELOW 12,000 FEET WITH NO
SIGNIFICANT WEATHER AND/OR OBSTRUCTIONS TO VISIBILITY.

WIZ001-002-006>008-014>016-023>028-171500-
NORTHWEST WISCONSIN

CITY           SKY/WX    TMP DP  RH WIND       PRES   REMARKS
SUPERIOR ARPT  CLOUDY    29  24  81 N9        30.19R WCI  21
ASHLAND        CLOUDY    30  29  96 E5        30.14R FOG     WCI  25
HAYWARD        CLOUDY    30  28  92 VRB3      30.11R FOG
SIREN          CLOUDY    30  29  94 N8        30.15R WCI  23
RICE LAKE      CLOUDY    31  29  93 NW8       30.12R FOG     WCI  24
LADYSMITH      CLOUDY    34  33  97 N6        30.08R FOG     WCI  29
EAU CLAIRE     CLOUDY    36  34  92 NW8       30.09R WCI  30
MENOMONIE      CLOUDY    33  33  99 NW10      30.10R WCI  25
NEW RICHMOND   CLOUDY    31  31  99 N15       30.14R WCI  20
OSCEOLA        CLOUDY    31  30  95 NW10      30.18R WCI  23
$$

WIZ003>005-009-010-017-018-171500-
NORTH CENTRAL WISCONSIN

CITY           SKY/WX    TMP DP  RH WIND       PRES   REMARKS
WOODRUFF         N/A     34  32  92 SE5       30.06R WCI  30
RHINELANDER    LGT SNOW  31  30  96 SE9       30.06R VSB 3/4 WCI  23
EAGLE RIVER    SNOW      31  31 100 SE6       30.06R VSB 1/2 WCI  25
LAND O LAKES   SNOW      32  30  94 SE6       30.07S VSB 1/2 WCI  26
PHILLIPS       CLOUDY    32  31  98 CALM      30.05R FOG
TOMAHAWK       MIX PCPN  32  31  96 CALM      30.05R
MEDFORD        CLOUDY    33  32  96 E3        30.04R FOG
MERRILL        LGT SNOW  33  33  97 CALM      30.05S
$$

WIZ029-030-035-036-043>047-171500-
CENTRAL WISCONSIN

CITY           SKY/WX    TMP DP  RH WIND       PRES   REMARKS
WAUSAU         LGT RAIN  34  32  92 E8        30.04R FOG     WCI  27
MOSINEE        NOT AVBL
MARSHFIELD     CLOUDY    37  35  92 E9        30.04R FOG     WCI  30
STEVENS POINT  CLOUDY    33  32  96 E8G16     30.05R FOG     WCI  25
WAUPACA        NOT AVBL
WAUTOMA        NOT AVBL
WISC RAPIDS    MOSUNNY   40  33  76 E9        30.05R WCI  34
CAMP DOUGLAS   NOT AVBL
$$

WIZ011>013-019>022-031-037>040-048>050-171500-
NORTHEAST WISCONSIN

CITY           SKY/WX    TMP DP  RH WIND       PRES   REMARKS
ANTIGO         LGT SNOW  32  31  96 SE12      30.06S VSB 1   WCI  23
STURGEON BAY   CLOUDY    34  28  80 SE12G17   30.14S WCI  25
GREEN BAY      CLOUDY    38  30  73 SE14G23   30.09S WCI  30
MANITOWOC      NOT AVBL
APPLETON       CLOUDY    37  30  75 SE12      30.07R WCI  30
CLINTONVILLE   FLURRIES  34  32  93 NE3       30.08R
OSHKOSH        CLOUDY    40  30  67 S9        30.06R WCI  34
$$

WIZ032>034-041-042-053>061-171500-
SOUTHWEST WISCONSIN

CITY           SKY/WX    TMP DP  RH WIND       PRES   REMARKS
LA CROSSE      CLOUDY    44  37  76 NW13      30.09R
SPARTA         SUNNY     45  37  72 W8        30.06R
VIROQUA        CLOUDY    40  40  97 W10       30.06R WCI  34
BOSCOBEL       CLOUDY    39  33  79 SW10      30.13R WCI  32
PRAIRIE DU CHI CLOUDY    37  32  84 W10       30.14R WCI  29
PLATTEVILLE    CLOUDY    38  33  82 W16G22    30.12R WCI  29
$$

WIZ056-057-062-063-064-067-068-171500-
SOUTH CENTRAL WISCONSIN

CITY           SKY/WX    TMP DP  RH WIND       PRES   REMARKS
BARABOO/DELLS  CLOUDY    40  35  79 W16G22    30.04R WCI  32
LONE ROCK      NOT AVBL
WATERTOWN      CLOUDY    43  32  64 S14       30.07R
MADISON        CLOUDY    44  37  76 SW8       30.07R
MIDDLETON      CLOUDY    45  36  71 W9        30.06R
MONROE         CLOUDY    40  40 100 SW22G28   30.08R WCI  30
JANESVILLE     CLOUDY    45  32  61 SW12G17   30.09R
$$

WIZ051-052-058>065-066-070>072-171500-
SOUTHEAST WISCONSIN

CITY           SKY/WX    TMP DP  RH WIND       PRES   REMARKS
MILWAUKEE      PTSUNNY   48  32  53 S9        30.11R
WAUKESHA       PTSUNNY   45  30  57 SW18      30.09R
MILWAUKEE/TIMM CLOUDY    45  30  57 S8          N/A
RACINE         PTSUNNY   49  32  52 S12G17    30.12R
BURLINGTON     PTSUNNY   47  32  56 SW23      30.10R
KENOSHA        MOSUNNY   49  32  52 SW18G26   30.10S
FOND DU LAC    CLOUDY    41  31  67 SE12      30.06R
SHEBOYGAN      CLOUDY    38  30  73 S15G24    30.11S WCI  29
WEST BEND      CLOUDY    41  30  65 SE9       30.07F
JUNEAU         CLOUDY    43  28  55 S15       30.07R
$$

LSZ147-162-171500-
LAKE SUPERIOR

STATION/POSITION TIME  TEMP    WIND        PRES    WAVE
                       AIR SEA DIR/SP/G            HT/PER
                 (UTC) (F)     (DEG/KT/KT) (MB)    (FT/S)
DEVILS ISLAND    1300   31      70/ 22/ 26 1021.2R
PORT WING        1300   30      50/  4/  6 1021.0R
SAXON HARBOR     1300           50/  9/ 11 1019.6
$$

LMZ867-665-643>646-171500-
LAKE MICHIGAN

STATION/POSITION TIME  TEMP    WIND        PRES    WAVE
                       AIR SEA DIR/SP/G            HT/PER
                 (UTC) (F)     (DEG/KT/KT) (MB)    (FT/S)
NORTHPORT PIER   1200   34     110/  8/ 11 1022.4S
SISTER BAY       1323   32     170/ 13/ 23   N/A
SHEBOYGAN LAKESH 1300   38     150/ 28/ 32 1019.8R
PORT WASHINGTON  1300   38     170/ 13/ 18 1020.0
MILWAUKEE LAKESH 1300   39     160/ 20/ 23   N/A
KENOSHA   LAKESH 1300   40     170/ 19/ 21   N/A
$$

TC  - TEMPERATURE IN CELSIUS
VSB - VISIBILITY IN STATUTE MILES
WCI - WIND CHILL INDEX
HX  - HEAT INDEX




USA.gov is the U.S. government's official web portal to all federal, state and local government web resources and services.